Showing default

TIROS 10, 1430

Orbit data source: Space-Track

TIROS 10, 1430 is a payload satellite owned by ESSA (US) in SSO that was launched on Fri, 02 Jul 1965 UTC via a THOR DELTA C launch vehicle from the Air Force Eastern Test Range (AFETR). Payload-class satellites include a variety of spacecraft equipped with specific instruments for various scientific and technological missions. These include communications satellites like Starlink; space stations such as the ISS; scientific satellites like the Hubble; Earth observation satellites from companies like Planet Labs, Umbra, and HawkEye 360; GPS; miniature CubeSats for education and research; and military/defense satellites.

Loading next visibility...
Identifier
1430, 1965-051A
Orbit
SSO
Country
Flag of USUS
Related business
Manufacturer
RCA/East Windsor
Mission
Non-operational spacecraft
Bus & Motor
TIROS I, Unknown motor
Mass
127 kg wet, 127 kg dry
Launch date (UTC)
1965-07-02 (61 years ago)
Launch vehicle
THOR DELTA C
Launch site
Air Force Eastern Test Range (AFETR)
Object type
Payload
Rocket body
Debris
Shape & HBR
Unknown
Radar Cross Section
Medium (>0.1 m² and <1 m²)

Expand to show TLE details & history
Last TLE update: 9 hours ago

TLE from 9 hours ago
0 TIROS 10
1  1430U 65051A   26125.56623317  .00000209  00000-0  76594-4 0  9990
2  1430  98.4979 245.0965 0054804 205.8763 153.9683 14.41613614189777
Epoch: 2026-05-05T13:35Z
TLE epoch observation values (Epoch: 2026-05-05T13:35:22.545Z)
Latitude
-0.00009°
Longitude
177.81334°
Altitude
791.288 km
Speed
7.44 km/s
True Right ascension
16h 20m 23s
True Declination
0° 00' 00"
Sunlit
Object was in full shadow at epoch
Visualization orbit readout
Latitude
Unknown
Longitude
Unknown
Altitude
Unknown
Speed
Unknown
Apparent Right ascension
Unknown
Apparent Declination
Unknown
Sunlit
N/A
Visualization observer readout
Local Sidereal Time
06:46:56
Azimuth
Unknown
Elevation
Unknown
Doppler factor
Unknown
Orbital elements
Apogee altitude
789.358 km
Perigee altitude
711.225 km
Semi-major axis
7,128.429 km
Eccentricity
0.00548
Inclination
98.4979°
RAAN
245.0965°
Arg. of periapsis
205.8763°
True anomaly
154.24223°
Mean anomaly
153.9683°
Eccentric anomaly
154.10543°
Mean motion
3.60622 °/min
Orbital period
99.83 mins
BSTAR
0.000076594
Loading maneuver chart data...
Computing Atmospheric mass density...
Loading historical data...
Loading historical data...
Loading historical data...
Loading historical data...
Loading historical data...
Loading historical data...
Loading historical data...
Other satellites on launch #51 in the year 1965 (1965-07-02 UTC)

Documentation

Showing up to 5 results
|